Weather History for Lafayette, IN

Change the Weather History Date:

Monday, August 13, 2012

  Actual Average Record
Temperature  
Mean Temperature 70 °F 74 °F  
Max Temperature 78 °F 84 °F 93 °F (2010)
Min Temperature 61 °F 63 °F 42 °F (1964)
Degree Days  
Heating Degree Days 0 0  
Month to date heating degree days 0 0  
Since 1 June heating degree days 20 23  
Since 1 July heating degree days 0 1  
Cooling Degree Days 5 9  
Month to date cooling degree days 121 117  
Year to date cooling degree days 1015 708  
Since 1 June cooling degree days 819 631  
Growing Degree Days 20 (Base 50)    
Moisture  
Dew Point 61 °F    
Average Humidity 74    
Maximum Humidity 100    
Minimum Humidity 47    
Precipitation  
Precipitation 0.54 in 0.11 in 1.88 in (1956)
Month to date precipitation 1.06 1.38  
Year to date precipitation 13.53 23.47  
Sea Level Pressure  
Sea Level Pressure 29.93 in    
Wind  
Wind Speed 5 mph (NE)    
Max Wind Speed 12 mph    
Max Gust Speed 17 mph    
Visibility 8 miles    
Events Rain    
T = Trace of Precipitation, MM = Missing Value Source: NWS Daily Summary

Daily Weather History Graph

Daily Weather History Graph

Search for Another Location

Airport:

Trip Planner

Search our weather history database for the weather conditions in past years. The results will help you decide how hot, cold, wet, or windy it might be!

Date:

Astronomy

Aug. 13, 2012 Rise Set
Actual Time 6:57 AM EDT 8:47 PM EDT
Civil Twilight 6:27 AM EDT 9:16 PM EDT
Nautical Twilight 5:52 AM EDT 9:51 PM EDT
Astronomical Twilight 5:13 AM EDT 10:30 PM EDT
Moon 2:59 AM EDT (8/13) 5:58 PM EDT (8/13)
Length of Visible Light 14h 48m
Length of Day
13h 50m
Waning Crescent, 16% of the Moon is Illuminated
Aug 13
Waning Crescent
Aug 17
New
Aug 24
First Quarter
Aug 31
Full
Sep 8
Last Quarter

Hourly Weather History & Observations

Time (EDT) Temp. Dew Point Humidity Pressure Visibility Wind Dir Wind Speed Gust Speed Precip Events Conditions
12:54 AM 63.0 °F 54.0 °F 72% 29.97 in 10.0 mi East 3.5 mph - N/A   Clear
1:54 AM 64.0 °F 54.0 °F 70% 29.97 in 10.0 mi Calm Calm - N/A   Partly Cloudy
2:54 AM 64.0 °F 55.9 °F 75% 29.96 in 10.0 mi Calm Calm - N/A   Mostly Cloudy
3:54 AM 63.0 °F 57.9 °F 84% 29.97 in 10.0 mi Calm Calm - 0.00 in Rain Light Rain
4:54 AM 62.1 °F 57.9 °F 86% 29.99 in 7.0 mi North 4.6 mph - 0.02 in Rain Rain
5:54 AM 62.1 °F 60.1 °F 93% 29.99 in 10.0 mi NNE 3.5 mph - 0.03 in Rain Light Rain
6:54 AM 62.1 °F 60.1 °F 93% 29.98 in 10.0 mi East 4.6 mph - 0.00 in Rain Light Rain
7:54 AM 63.0 °F 61.0 °F 93% 29.97 in 10.0 mi ENE 4.6 mph - N/A   Overcast
8:54 AM 64.0 °F 60.1 °F 87% 29.96 in 10.0 mi East 6.9 mph - N/A   Partly Cloudy
9:54 AM 66.9 °F 60.1 °F 79% 29.96 in 10.0 mi East 8.1 mph - N/A   Partly Cloudy
10:54 AM 71.1 °F 57.9 °F 63% 29.95 in 10.0 mi SE 5.8 mph - N/A   Scattered Clouds
11:54 AM 73.0 °F 59.0 °F 61% 29.94 in 10.0 mi Variable 3.5 mph - N/A   Mostly Cloudy
12:54 PM 73.9 °F 57.0 °F 55% 29.93 in 10.0 mi SSW 9.2 mph - N/A   Overcast
1:54 PM 77.0 °F 55.9 °F 48% 29.92 in 10.0 mi SE 6.9 mph - N/A   Scattered Clouds
2:54 PM 72.0 °F 62.1 °F 71% 29.91 in 3.0 mi NE 3.5 mph - 0.05 in   Overcast
3:54 PM 71.1 °F 62.1 °F 73% 29.89 in 10.0 mi NNE 5.8 mph - N/A   Overcast
4:54 PM 68.0 °F 64.0 °F 87% 29.91 in 10.0 mi North 6.9 mph - 0.03 in Rain Light Rain
5:54 PM 69.1 °F 64.0 °F 84% 29.89 in 10.0 mi NE 5.8 mph - N/A   Overcast
6:54 PM 68.0 °F 64.0 °F 87% 29.89 in 8.0 mi NNE 4.6 mph - 0.01 in Rain Light Rain
7:48 PM 66.2 °F 64.4 °F 94% 29.90 in 3.0 mi Calm Calm - 0.08 in Rain Rain
7:54 PM 66.9 °F 64.9 °F 93% 29.89 in 4.0 mi Calm Calm - 0.08 in Rain Light Rain
8:13 PM 66.2 °F 64.4 °F 94% 29.90 in 8.0 mi Calm Calm - 0.00 in   Overcast
8:38 PM 66.2 °F 64.4 °F 94% 29.91 in 2.0 mi North 9.2 mph - 0.10 in Rain Heavy Rain
8:54 PM 66.0 °F 64.0 °F 93% 29.90 in 2.0 mi North 8.1 mph - 0.23 in Rain Heavy Rain
8:58 PM 64.4 °F 64.4 °F 100% 29.91 in 1.8 mi NNE 8.1 mph - 0.04 in Rain Heavy Rain
9:03 PM 64.4 °F 64.4 °F 100% 29.91 in 2.5 mi NNE 9.2 mph - 0.05 in Rain Rain
9:05 PM 64.4 °F 64.4 °F 100% 29.91 in 3.0 mi NNE 8.1 mph - 0.06 in Rain Rain
9:13 PM 64.4 °F 64.4 °F 100% 29.91 in 4.0 mi NE 6.9 mph - 0.08 in Rain Light Rain
9:47 PM 64.4 °F 62.6 °F 94% 29.92 in 10.0 mi NNE 4.6 mph - 0.09 in   Overcast
9:54 PM 64.9 °F 63.0 °F 93% 29.91 in 10.0 mi NNE 5.8 mph - 0.09 in   Overcast
10:54 PM 64.0 °F 62.1 °F 93% 29.91 in 9.0 mi NE 5.8 mph - N/A   Overcast
11:54 PM 63.0 °F 62.1 °F 97% 29.91 in 8.0 mi NNE 3.5 mph - N/A   Overcast